• Processing (Info)

  • MPEC 2016-W05 : 2016 VS5

    The following Minor Planet Electronic Circular may be linked-to from your own Web pages, but must not otherwise be redistributed electronically.

    A form allowing access to any MPEC is at the bottom of this page.


    Read MPEC 2016-W04 Read MPEC 2016-W06


    M.P.E.C. 2016-W05                                Issued 2016 Nov. 18, 03:04 UT
    
         The Minor Planet Electronic Circulars contain information on unusual
             minor planets and routine data on comets.  They are published
        on behalf of Division F of the International Astronomical Union by the
              Minor Planet Center, Smithsonian Astrophysical Observatory,
                              Cambridge, MA 02138, U.S.A.
    
                 Prepared using the Tamkin Foundation Computer Network
    
                                  MPC@CFA.HARVARD.EDU
                URL https://www.minorplanetcenter.net/    ISSN 1523-6714
    
                                       2016 VS5
    
    Observations:
         K16V05S* C2016 11 07.60256 08 00 07.494-01 53 34.65         21.3 wLEW005F51
         K16V05S  C2016 11 07.61263 08 00 09.160-01 53 54.13         21.6 wLEW005F51
         K16V05S  C2016 11 07.62271 08 00 10.818-01 54 13.18         21.2 wLEW005F51
         K16V05S KC2016 11 11.40889 08 11 02.51 -03 59 47.2          20.8 RoEW005291
         K16V05S KC2016 11 11.42093 08 11 04.56 -04 00 12.0          21.0 RoEW005291
         K16V05S KC2016 11 11.42628 08 11 05.49 -04 00 22.3          20.4 RoEW005291
         K16V05S KC2016 11 12.38064 08 13 52.78 -04 33 13.7          19.8 RoEW005291
         K16V05S KC2016 11 12.38440 08 13 53.46 -04 33 20.5          19.4 RoEW005291
         K16V05S KC2016 11 12.38814 08 13 54.11 -04 33 29.3          19.3 RoEW005291
         K16V05S  C2016 11 13.42080208 16 56.28 -05 09 35.3          21.2 GUEW005H01
         K16V05S  C2016 11 13.42392608 16 56.82 -05 09 41.8          21.1 GUEW005H01
         K16V05S  C2016 11 13.43448308 16 58.66 -05 10 04.1          21.0 GUEW005H01
         K16V05S  C2016 11 13.44145708 16 59.85 -05 10 18.9          20.8 GUEW005H01
    
    Observer details:
    291 LPL/Spacewatch II.  Observers T. H. Bressi, R. A. Mastaler.  1.8-m f/2.7
        reflector + CCD.
    F51 Pan-STARRS 1, Haleakala.  Observers B. Gibson, T. Goggia, S. Kahale,
        A. Schultz, M. Willman.  Measurers K. Chambers, S. Chastel, L. Denneau,
        H. Flewelling, M. Huber, E. Lilly, E. Magnier, R. Wainscoat, C. Waters,
        R. Weryk.  1.8-m Ritchey-Chretien + CCD.
    H01 Magdalena Ridge Observatory, Socorro.  Observers W. H. Ryan, E. V. Ryan.
        Measurer W. H. Ryan.  2.4-m f/8.9 reflector + CCD.
    
    Orbital elements:
    2016 VS5                                            PHA, Earth MOID = 0.0227 AU
    Epoch 2017 Feb. 16.0 TT = JDT 2457800.5                 MPC
    M   2.70228              (2000.0)            P               Q
    n   0.49376857     Peri.  324.32740     -0.96458578     -0.24654495
    a   1.5853327      Node   201.97202     +0.25959933     -0.95029658
    e   0.3847971      Incl.   14.51165     -0.04671689     -0.19013676
    P   2.00           H   19.6           G   0.15           U   9
    Residuals in seconds of arc
    161107 F51  0.0   0.1-    161111 291  0.2+  0.3+    161113 H01  0.0   0.1-
    161107 F51  0.0   0.1-    161112 291  0.4-  0.2-    161113 H01  0.2+  0.0
    161107 F51  0.0   0.2+    161112 291  0.1+  0.8+    161113 H01  0.1-  0.1-
    161111 291  0.0   0.3-    161112 291  0.2+  0.2-
    161111 291  0.1-  0.4-    161113 H01  0.0   0.2-
    
    Ephemeris:
    2016 VS5                 a,e,i = 1.59, 0.38, 15                  q = 0.9753
    Date    TT    R. A. (2000) Decl.     Delta      r     Elong.  Phase     V
    2016 10 19    07 07 30.0 +06 56 20   0.9362  1.4598    98.1    42.5    21.9
    ...
    2016 11 03    07 47 17.5 +00 28 47   0.7782  1.3751   101.3    45.0    21.5
    ...
    2016 11 11    08 09 50.7 -03 45 43   0.7045  1.3295   102.1    46.7    21.2
    ...
    2016 11 17    08 27 40.5 -07 18 49   0.6547  1.2955   102.1    48.3    21.1
    2016 11 18    08 30 44.4 -07 56 08   0.6469  1.2898   102.1    48.5    21.0
    2016 11 19    08 33 50.1 -08 33 58   0.6392  1.2842   102.1    48.8    21.0
    ...
    2016 11 25    08 53 05.3 -12 30 56   0.5959  1.2505   101.5    50.7    20.8
    ...
    2016 12 03    09 20 58.7 -18 09 15   0.5461  1.2065    99.9    53.6    20.7
    ...
    2016 12 18    10 23 16.1 -29 09 13   0.4781  1.1288    94.7    60.3    20.4
    
    A. U. Tomatic                (C) Copyright 2016 MPC           M.P.E.C. 2016-W05
    

    Read MPEC 2016-W04 Read MPEC 2016-W06


    MPEC number:

    Enter an MPEC number in one of the following forms:

    • 1997-B01 (the full form)
    • J97B01 (the packed version of the full form)
    • B01 (the abbreviated form)